Regional Weather Roundup
Issued by NWS

Home | Current Version | Previous Version | Text Only | Print | Product List | Glossary Off
Versions: 1 2 3 4 5 6 7 8 9 10 11 12 13 14 15 16 17 18 19 20 21 22 23 24 25 26 27 28 29 30 31 32 33 34 35 36 37 38 39 40 41 42 43 44 45 46 47 48 49 50

000
ASUS43 KFSD 221602
RWRSD

WEATHER ROUNDUP FOR SOUTH DAKOTA
NATIONAL WEATHER SERVICE SIOUX FALLS SD
1100 AM CDT FRI SEP 22 2017

NOTE: "FAIR" INDICATES FEW OR NO CLOUDS BELOW 12,000 FEET WITH NO
SIGNIFICANT WEATHER AND/OR OBSTRUCTIONS TO VISIBILITY.


SDZ001>005-009-010-012>017-221700-
NORTHWEST AND NORTH CENTRAL SOUTH DAKOTA

CITY           SKY/WX    TMP DP  RH WIND       PRES   REMARKS
BUFFALO          N/A     51  37  58 N20G29    29.81S
FAITH            N/A     53  47  79 N17       29.75R
MOBRIDGE       CLOUDY    64  57  78 NE13G21   29.65R
$$

SDZ012>016-024>037-041>051-057-063-072>074-221700-
SOUTHWEST AND SOUTH CENTRAL SOUTH DAKOTA

CITY           SKY/WX    TMP DP  RH WIND       PRES   REMARKS
RAPID CTY ARPT CLOUDY    54  39  58 NW25G38   29.82R
PIERRE         PTSUNNY   64  57  78 SW13      29.63R
CUSTER         PTSUNNY   56  46  69 VRB6      29.86R
ELLSWORTH AFB  CLOUDY    54  40  60 NW25G33   29.81R
PHILIP         CLOUDY    58  50  75 NW22      29.72R
PINE RIDGE     CLOUDY    56  44  64 NW13      29.82R
SPEARFISH      CLOUDY    50  39  66 NW15      29.89S
WINNER         FAIR      66  51  58 W17       29.71R
$$

SDZ004>011-016>023-039-040-221700-
NORTHEAST SOUTH DAKOTA

CITY           SKY/WX    TMP DP  RH WIND       PRES   REMARKS
ABERDEEN       SUNNY     84  72  67 SE20      29.63F
WATERTOWN      MOSUNNY   79  73  82 S16G24    29.70F
BROOKINGS      MOSUNNY   81  72  74 S17       29.74S
SISSETON         N/A     78  74  87 SE14G20   29.69F
$$

SDZ017-020-022-023-036>040-048>070-221700-
SOUTHEAST SOUTH DAKOTA

CITY           SKY/WX    TMP DP  RH WIND       PRES   REMARKS
SIOUX FALLS    MOSUNNY   84  71  65 S18G29    29.73S
HURON          SUNNY     83  71  67 S17G25    29.63F
CHAMBERLAIN    SUNNY     69  56  62 SW16      29.69R
MITCHELL       SUNNY     85  69  58 S17G28    29.66S
YANKTON          N/A     85  70  60 S20G25    29.70
$$

ABBREVIATIONS USED IN REMARKS
   TC - TEMPERATURE IN CELSIUS
  WCI - WIND CHILL INDEX
   HX - HEAT INDEX
  VSB - VISIBILITY





USA.gov is the U.S. government's official web portal to all federal, state and local government web resources and services.